User: anonymous   Login
Location: Balaclava NSW 2575, Australia
(34.4510°S, 150.4953°E)
Time: 06:30:02
(UTC+10:00)
Language:

CAS-6 - Orbit

View from above orbital plane
View from above orbital plane
View from above satellite
View from above satellite

Ground track
Ground track

The orbit data is extracted from the following two-line orbital elements,

1 44881U 19093C   21204.53479888  .00000052  00000-0  13445-4 0  9996
2 44881  97.9238 282.9702 0015152 170.3538 189.7972 14.81464643 86071
Epoch (UTC): 23 July 2021 12:50:06
Eccentricity: 0.0015152
inclination: 97.9238°
perigee height: 614 km
apogee height: 635 km
right ascension of ascending node: 282.9702°
argument of perigee: 170.3538°
revolutions per day: 14.81464643
mean anomaly at epoch: 189.7972°
orbit number at epoch: 8607

The dashed part of the orbit path shows where the satellite is in the earth's shadow,  

DLR